Portada
METAR-TAF:

METAR-TAF

Aeroports :

Nowra, Austràlia

latitud: 34-57S, longitud: 150-32E, altitud: 122 m

Observació

L'informe es va fer fa 1 hora i 23 minuts, a les 07:00 UTC
Vent 11 kt del Est
Temperatura 19°C
Humitat 52%
Pressió 1022 hPa
Visibilitat 10 km o més
Núvols disperses a una alçada de 4300 ft
Cel ennuvolat a una alçada de 5300 ft

METAR: YSNW 180700Z AUTO 08011KT 9999 // SCT043 BKN053 19/09 Q1022

Hora: 19:23 (08:23 UTC)


TAF: manca

Observacions i pronòstics meteorològics de més de 4000 aeroports (METAR i TAF).

Les estacions disponibles són els punts grocs i vermells al mapa.

Posi el ratolí al punt desitjat per veure el nom de l'estació.

Feu clic per veure les observacions i els pronòstics meteorològics.

Per canviar el mapa: feu clic els botons verds amb una creu de color negre per apropar; al botó verd amb un guió per allunyar la imatge; o en les fletxes verdes per a mapes adjacents.


METAR-TAF: